Regional Weather Roundup
Issued by NWS

Home | Current Version | Previous Version | Text Only | Print | Product List | Glossary On
Versions: 1 2 3 4 5 6 7 8 9 10 11 12 13 14 15 16 17 18 19 20 21 22 23 24 25 26 27
000
ASUS44 KLIX 280511
RWRLA
LOUISIANA WEATHER ROUNDUP
NATIONAL WEATHER SERVICE NEW ORLEANS LA
1200 AM CDT WED SEP 28 2016

NOTE: "FAIR" INDICATES FEW OR NO CLOUDS BELOW 12,000 FEET WITH NO
      SIGNIFICANT WEATHER AND/OR OBSTRUCTIONS TO VISIBILITY.
      SKY/WX - SKY CONDITION AND SIGNIFICANT WEATHER.
      TMP - AIR TEMPERATURE.    DP   - DEWPOINT TEMPERATURE.
      RH  - RELATIVE HUMIDITY.  PRES - PRESSURE.
      HX  - HEAT INDEX.         WCI  - WIND CHILL INDEX.

*  THESE STATIONS ARE NOT NWS OR FAA STATIONS AND ARE NOT UNDER
   NWS QUALITY CONTROL.

LAZ040-048-061>063-065-066-069-280600-
SOUTHEAST LOUISIANA

CITY           SKY/WX    TMP DP  RH WIND       PRES   REMARKS
N.O. AUDUBON     N/A     79  73  83 MISG        N/A
N.O. INTL ARPT MOCLDY    80  74  81 W5        29.95F
N.O. LAKEFRONT PTCLDY    82  74  76 W8        29.95F
N.O. DOWNTOWN*   N/A     82  72  71 CALM      29.95F
RESERVE*       FAIR      76  74  94 CALM      29.96F
SLIDELL        PTCLDY    76  73  91 N3        29.94F
BATON ROUGE    MOCLDY    74  67  78 NW5       29.96F
BOOTHVILLE     CLEAR     78  74  87 W5        29.95F
BELLE CHASSE   PTCLDY    77  74  90 NW3       29.95S
BOGALUSA*      FAIR      74  68  83 CALM      29.97F
GALLIANO*      CLEAR    N/A N/A N/A CALM      29.95F FOG
NEW ROADS*     FAIR      71  68  88 MISG      29.97F
GONZALES*      FAIR      75  69  83 CALM      29.96S
HAMMOND*       CLOUDY    73  68  83 CALM      29.96S
HOUMA*         PTCLDY    72  71  99 CALM      29.96F
PORT FOURCHON* CLEAR     82  75  78 CALM      29.95F

$$

LAZ041-044-053-054-280600-
SOUTHWEST LOUISIANA

CITY           SKY/WX    TMP DP  RH WIND       PRES   REMARKS
LAKE CHARLES   PTCLDY    74  66  76 N5        29.98S
LAFAYETTE      PTCLDY    75  66  73 NE3       29.97F
PATTERSON      PTCLDY    76  72  87 N5        29.97F
SALT POINT     NOT AVBL
NEW IBERIA     CLEAR     74  67  78 N3        29.97F
CHENAULT AIRPK PTCLDY    72  67  84 CALM      29.98F

$$

LAZ027-028-280600-
CENTRAL LOUISIANA

CITY           SKY/WX    TMP DP  RH WIND       PRES   REMARKS
FORT POLK      CLEAR     69  61  76 VRB5      30.00S
ALEXANDRIA INT CLOUDY    69  64  84 NW5       29.98S
ALEXANDRIA     CLOUDY    68  66  93 CALM      29.99F

$$

LAZ001-002-280600-
NORTHWEST LOUISIANA

CITY           SKY/WX    TMP DP  RH WIND       PRES   REMARKS
SHREVEPORT     PTCLDY    65  62  90 CALM      30.01R
BARKSDALE AFB  CLEAR     64  61  88 CALM      30.01S
DTN SHREVEPORT CLEAR     65  60  84 CALM      30.01S

$$

LAZ014-016-280600-
NORTHEAST LOUISIANA

CITY           SKY/WX    TMP DP  RH WIND       PRES   REMARKS
MONROE         CLEAR     66  62  87 CALM      30.00S
TALLULAH       PTCLDY    62  59  90 CALM      29.98S

$$





USA.gov is the U.S. government's official web portal to all federal, state and local government web resources and services.